Location: Unspecified
(49.2170°N, 0.0000°E)
Time: 15:31:52
(UTC+00:00)

Tiros 1 despin weight - Pass Details

Date: 22 January 2021
Orbit: 593 x 642 km, 48.2° (Epoch: 07 March)

Event Time Altitude Azimuth Distance (km) Brightness Sun altitude
Rises 19:43:57 0° 281° (WNW) 2,850 ? -29.6°
Reaches altitude 10° 19:46:20 10° 275° (W) 1,939 ? -30.0°
Enters shadow 19:49:03 32° 252° (WSW) 1,033 ? -30.4°
Maximum altitude 19:50:33 45° 204° (SSW) 820 - -30.7°
Drops below altitude 10° 19:54:44 10° 132° (SE) 1,920 - -31.3°
Sets 19:57:05 0° 125° (SE) 2,818 - -31.7°
